This is the latest recevied weather packets stored in our database for station/object SP1BMW-13. If no packets are shown the sender has not sent any weather packets the latest 10 day(s).
| Time | Temp. | Humidity | Pressure | Rain* | Wind** | Luminosity | Snow |
|---|---|---|---|---|---|---|---|
| 1788066816 | 18.89° C | 71% | 1008.4 hPa | 0 mm | 0 m/s | 49 W/m² | - |
| 1788066757 | 18.89° C | 71% | 1008.5 hPa | 0 mm | 0 m/s | 54 W/m² | - |
| 1788066696 | 18.89° C | 72% | 1008.5 hPa | 0 mm | 0 m/s | 60 W/m² | - |
| 1788066636 | 18.33° C | 72% | 1008.6 hPa | 0 mm | 0 m/s | 66 W/m² | - |
| 1788066577 | 18.33° C | 72% | 1008.5 hPa | 0 mm | 0 m/s | 75 W/m² | - |
| 1788066518 | 18.33° C | 71% | 1008.6 hPa | 0 mm | 0 m/s | 75 W/m² | - |
| 1788066456 | 18.33° C | 71% | 1008.5 hPa | 0 mm | 0 m/s | 62 W/m² | - |
| 1788066397 | 18.33° C | 72% | 1008.6 hPa | 0 mm | 0 m/s | 52 W/m² | - |
| 1788066338 | 18.89° C | 71% | 1008.4 hPa | 0 mm | 0 m/s | 45 W/m² | - |
| 1788066277 | 18.89° C | 71% | 1008.6 hPa | 0 mm | 0 m/s | 41 W/m² | - |
| 1788066220 | 18.89° C | 71% | 1008.5 hPa | 0 mm | 0 m/s | 39 W/m² | - |
| 1788066157 | 18.89° C | 71% | 1008.5 hPa | 0 mm | 0 m/s | 36 W/m² | - |
| 1788066097 | 18.89° C | 71% | 1008.4 hPa | 0 mm | 0 m/s | 32 W/m² | - |
| 1788066037 | 18.89° C | 71% | 1008.4 hPa | 0 mm | 0 m/s | 29 W/m² | - |
| 1788065977 | 18.89° C | 71% | 1008.5 hPa | 0 mm | 0.45 m/s, 272° | 27 W/m² | - |
| 1788065920 | 18.89° C | 71% | 1008.5 hPa | 0 mm | 0 m/s | 27 W/m² | - |
| 1788065857 | 18.89° C | 71% | 1008.6 hPa | 0 mm | 0.45 m/s, 42° | 24 W/m² | - |
| 1788065797 | 18.89° C | 71% | 1008.4 hPa | 0 mm | 0 m/s | 23 W/m² | - |
| 1788065737 | 18.89° C | 71% | 1008.7 hPa | 0 mm | 0 m/s | 21 W/m² | - |
| 1788065677 | 18.89° C | 70% | 1008.3 hPa | 0 mm | 0 m/s | 18 W/m² | - |
| 1788065617 | 18.89° C | 70% | 1008.5 hPa | 0 mm | 0 m/s | 16 W/m² | - |
| 1788065557 | 18.89° C | 70% | 1008.6 hPa | 0 mm | 0 m/s | 15 W/m² | - |
| 1788065499 | 18.33° C | 70% | 1008.4 hPa | 0 mm | 0.45 m/s, 42° | 14 W/m² | - |
| 1788065437 | 18.33° C | 70% | 1008.5 hPa | 0 mm | 0.89 m/s, 40° | 14 W/m² | - |
| 1788065378 | 18.33° C | 70% | 1008.4 hPa | 0 mm | 0 m/s | 13 W/m² | - |
* Rain latest hour (hover to see other rain measurements)
** Current wind speed in m/s (hover to see current wind gust speed)